Location: Chin
(49.7667°N, 112.4500°W)
Time: 10:29:42
(UTC+00:00)

Envisat - Pass Details

Date: 30 November 2021
Orbit: 764 x 766 km, 98.2° (Epoch: 24 January)

Event Time Altitude Azimuth Distance (km) Brightness Sun altitude
Rises 11:21:06 0° 26° (NNE) 3,246 6.6 -35.2°
Reaches altitude 10° 11:24:05 10° 44° (NE) 2,314 6.0 -34.7°
Maximum altitude 11:27:41 19° 89° (E) 1,756 5.5 -34.2°
Drops below altitude 10° 11:31:17 10° 135° (SE) 2,300 5.9 -33.6°
Sets 11:34:13 0° 152° (SSE) 3,221 6.5 -33.1°
